Location: Colonia Mina de C?rbuni
(46.1667°N, 22.7167°E)
Time: 09:45:45
(UTC+00:00)

Vanguard 1 - Pass Details

Date: 17 April 2024
Orbit: 652 x 3825 km, 34.2° (Epoch: 29 May)

Event Time Altitude Azimuth Distance (km) Brightness Sun altitude
Exits shadow 01:49:37 - 200° (SSW) 7,029 13.9 -17.6°
Reaches altitude 10° 01:51:08 10° 198° (SSW) 6,774 13.8 -17.4°
Maximum altitude 02:06:58 27° 151° (SSE) 4,594 13.4 -15.2°
Drops below altitude 10° 02:18:17 10° 100° (E) 4,827 14.3 -13.5°
Sets 02:22:07 0° 89° (E) 5,398 15.0 -13.0°
